| time (UTC) | temp C | wind direction | speed KPH | gust KPH | rain 1hr cm | rain 24hr cm | rain mn cm | humidity % | barometer mb |
| 20260505041018 | 16 | 0.0 | 3.2 | 0.00 | 0.00 | 0.00 | 100 | 1031.5 | |
| 20260505040018 | 16 | 0.0 | 1.6 | 0.00 | 0.00 | 0.00 | 100 | 1031.5 | |
| 20260505035018 | 16 | 0.0 | 3.2 | 0.00 | 0.00 | 0.00 | 100 | 1031.6 | |
| 20260505034018 | 16 | 0.0 | 1.6 | 0.00 | 0.00 | 0.00 | 100 | 1031.6 | |
| 20260505033018 | 16 | 0.0 | 4.8 | 0.00 | 0.00 | 0.00 | 100 | 1031.7 | |
| 20260505032018 | 16 | 0.0 | 3.2 | 0.00 | 0.00 | 0.00 | 100 | 1031.8 | |
| 20260505031118 | 16 | 0.0 | 4.8 | 0.00 | 0.00 | 0.00 | 100 | 1031.8 | |
| 20260505030138 | 15 | 0.0 | 1.6 | 0.00 | 0.00 | 0.00 | 100 | 1031.8 | |
| 20260505025018 | 15 | 0.0 | 3.2 | 0.00 | 0.00 | 0.00 | 100 | 1031.8 | |
| 20260505024018 | 15 | 68 | 1.6 | 3.2 | 0.00 | 0.00 | 0.00 | 100 | 1031.7 |
| 20260505023018 | 15 | 68 | 1.6 | 3.2 | 0.00 | 0.00 | 0.00 | 100 | 1031.8 |
| 20260505022017 | 16 | 0.0 | 3.2 | 0.00 | 0.00 | 0.00 | 100 | 1031.8 | |
| 20260505021017 | 16 | 0.0 | 3.2 | 0.00 | 0.00 | 0.00 | 100 | 1032.0 | |
| 20260505020018 | 17 | 0.0 | 3.2 | 0.00 | 0.00 | 0.00 | 100 | 1032.0 | |
| 20260505015018 | 17 | 0.0 | 1.6 | 0.00 | 0.00 | 0.00 | 100 | 1032.0 | |
| 20260505014018 | 17 | 0.0 | 3.2 | 0.00 | 0.00 | 0.00 | 100 | 1032.1 | |
| 20260505013018 | 16 | 0.0 | 4.8 | 0.00 | 0.00 | 0.00 | 100 | 1032.2 | |
| 20260505012018 | 16 | 0 | 1.6 | 3.2 | 0.00 | 0.00 | 0.00 | 100 | 1032.4 |
| 20260505011018 | 16 | 0.0 | 4.8 | 0.00 | 0.00 | 0.00 | 100 | 1032.5 | |
| 20260505010057 | 16 | 0 | 1.6 | 3.2 | 0.00 | 0.00 | 0.00 | 100 | 1032.6 |
| 20260505005018 | 16 | 0.0 | 3.2 | 0.00 | 0.00 | 0.00 | 100 | 1032.7 | |
| 20260505004018 | 16 | 0.0 | 4.8 | 0.00 | 0.00 | 0.00 | 100 | 1032.8 | |
| 20260505003018 | 16 | 0.0 | 3.2 | 0.00 | 0.00 | 0.00 | 100 | 1033.0 | |
| 20260505002018 | 16 | 0.0 | 1.6 | 0.00 | 0.00 | 0.00 | 100 | 1033.2 | |
| 20260505001018 | 15 | 0.0 | 3.2 | 0.00 | 0.00 | 0.00 | 100 | 1033.4 | |
| 20260505000018 | 15 | 68 | 1.6 | 3.2 | 0.00 | 0.00 | 0.00 | 100 | 1033.6 |
| 20260504235018 | 15 | 0.0 | 3.2 | 0.00 | 0.00 | 0.00 | 100 | 1033.7 | |
| 20260504234017 | 15 | 0.0 | 1.6 | 0.00 | 0.00 | 0.00 | 100 | 1034.0 | |
| 20260504233017 | 14 | 68 | 1.6 | 3.2 | 0.00 | 0.00 | 0.00 | 100 | 1033.9 |
| 20260504232017 | 14 | 0.0 | 3.2 | 0.00 | 0.00 | 0.00 | 100 | 1034.1 | |
| 20260504231138 | 14 | 68 | 1.6 | 4.8 | 0.00 | 0.00 | 0.00 | 100 | 1034.1 |
| 20260504230018 | 14 | 68 | 1.6 | 3.2 | 0.00 | 0.00 | 0.00 | 100 | 1034.1 |
| 20260504225018 | 13 | 0.0 | 4.8 | 0.00 | 0.00 | 0.00 | 100 | 1034.2 | |
| 20260504224038 | 13 | 0.0 | 1.6 | 0.00 | 0.00 | 0.00 | 100 | 1034.1 | |
| 20260504223058 | 13 | 0.0 | 1.6 | 0.00 | 0.00 | 0.00 | 100 | 1034.2 | |
| 20260504222018 | 13 | 0.0 | 0.0 | 0.00 | 0.00 | 0.00 | 100 | 1034.1 | |
| 20260504221018 | 12 | 0.0 | 1.6 | 0.00 | 0.00 | 0.00 | 100 | 1034.2 | |
| 20260504220017 | 12 | 0.0 | 0.0 | 0.00 | 0.00 | 0.00 | 100 | 1034.2 | |
| 20260504215019 | 12 | 0.0 | 3.2 | 0.00 | 0.00 | 0.00 | 100 | 1034.0 | |
| 20260504214017 | 12 | 0.0 | 0.0 | 0.00 | 0.00 | 0.00 | 100 | 1034.1 | |
| 20260504213017 | 12 | 0.0 | 0.0 | 0.00 | 0.00 | 0.00 | 100 | 1034.0 | |
| 20260504212017 | 12 | 0.0 | 3.2 | 0.00 | 0.00 | 0.00 | 100 | 1034.0 | |
| 20260504211018 | 11 | 0.0 | 3.2 | 0.00 | 0.00 | 0.00 | 100 | 1034.0 | |
| 20260504210117 | 11 | 0.0 | 0.0 | 0.00 | 0.00 | 0.00 | 100 | 1034.2 | |
| 20260504205038 | 10 | 0.0 | 1.6 | 0.00 | 0.00 | 0.00 | 100 | 1034.2 | |
| 20260504204018 | 10 | 0.0 | 1.6 | 0.00 | 0.00 | 0.00 | 100 | 1034.2 | |
| 20260504203018 | 10 | 0.0 | 1.6 | 0.00 | 0.00 | 0.00 | 100 | 1034.2 | |
| 20260504202017 | 9 | 0.0 | 1.6 | 0.00 | 0.00 | 0.00 | 100 | 1034.3 | |
| 20260504201037 | 9 | 0.0 | 1.6 | 0.00 | 0.00 | 0.00 | 100 | 1034.2 | |
| 20260504200018 | 8 | 0.0 | 1.6 | 0.00 | 0.00 | 0.00 | 100 | 1034.2 | |
| 20260504195018 | 8 | 0.0 | 1.6 | 0.00 | 0.00 | 0.00 | 100 | 1034.1 | |
| 20260504194018 | 8 | 0.0 | 1.6 | 0.00 | 0.00 | 0.00 | 100 | 1034.0 | |
| 20260504193017 | 8 | 0.0 | 1.6 | 0.00 | 0.00 | 0.00 | 100 | 1033.9 | |
| 20260504192057 | 8 | 0.0 | 1.6 | 0.00 | 0.00 | 0.00 | 100 | 1033.9 | |
| 20260504191037 | 8 | 0.0 | 3.2 | 0.00 | 0.00 | 0.00 | 100 | 1033.9 | |
| 20260504190017 | 8 | 0.0 | 3.2 | 0.00 | 0.00 | 0.00 | 100 | 1033.9 | |
| 20260504185017 | 8 | 0.0 | 1.6 | 0.00 | 0.00 | 0.00 | 100 | 1033.8 | |
| 20260504184017 | 8 | 0.0 | 0.0 | 0.00 | 0.00 | 0.00 | 100 | 1033.8 | |
| 20260504183017 | 8 | 0.0 | 1.6 | 0.00 | 0.00 | 0.00 | 100 | 1034.0 | |
| 20260504182017 | 8 | 0.0 | 0.0 | 0.00 | 0.00 | 0.00 | 100 | 1033.9 | |
| 20260504181057 | 8 | 0.0 | 0.0 | 0.00 | 0.00 | 0.00 | 100 | 1033.9 | |
| 20260504180017 | 8 | 0.0 | 0.0 | 0.00 | 0.00 | 0.00 | 100 | 1033.9 | |
| 20260504175016 | 8 | 0.0 | 0.0 | 0.00 | 0.00 | 0.00 | 100 | 1033.9 | |
| 20260504174017 | 8 | 0.0 | 0.0 | 0.00 | 0.00 | 0.00 | 100 | 1034.0 | |
| 20260504173017 | 8 | 0.0 | 0.0 | 0.00 | 0.00 | 0.00 | 100 | 1034.0 | |
| 20260504172057 | 8 | 0.0 | 0.0 | 0.00 | 0.00 | 0.00 | 100 | 1034.0 | |
| 20260504171017 | 8 | 0.0 | 0.0 | 0.00 | 0.00 | 0.00 | 100 | 1034.1 | |
| 20260504151037 | 8 | 0.0 | 0.0 | 0.00 | 0.00 | 0.00 | 100 | 1034.6 | |
| 20260504141017 | 8 | 0.0 | 0.0 | 0.00 | 0.00 | 0.00 | 100 | 1035.2 | |
| 20260504110118 | 8 | 0.0 | 0.0 | 0.00 | 0.00 | 0.00 | 100 | 1035.5 | |
| 20260504081018 | 11 | 0.0 | 0.0 | 0.00 | 0.00 | 0.00 | 100 | 1035.1 | |
| 20260504050017 | 12 | 0.0 | 0.0 | 0.00 | 0.00 | 0.00 | 100 | 1034.1 |